Wind_Speed
37 39 40 42 44 50 52 48 48 48 47 45 46 43 41 39 37 35 32 29 27 26 24 23 23 23 23 23 23 23 22 21 21 22 21 21 22 22 23 24 25 29 40 47 50
37 38 41 45 45 48 51 55 48 47 48 47 45 46 44 42 41 38 35 32 30 29 28 26 24 26 26 28 28 26 24 24 24 24 23 23 24 24 24 25 28 30 35 43 48
36 37 41 43 47 48 53 51 50 47 44 49 48 46 46 46 44 42 38 36 34 32 31 31 29 27 28 29 31 29 26 25 25 25 24 24 24 26 26 28 30 33 35 39 42
33 37 42 43 47 47 52 53 56 45 46 48 53 49 45 47 48 46 44 40 38 36 35 35 34 30 29 30 31 32 29 28 28 28 25 26 28 27 27 31 32 35 37 37 38
29 35 45 46 46 46 50 52 52 51 50 46 48 53 49 49 48 49 47 45 42 40 40 38 37 33 31 33 32 34 33 31 31 30 28 28 29 28 29 31 33 35 39 37 36
32 35 44 47 47 44 46 50 52 52 54 51 47 50 53 51 49 50 49 48 46 45 42 41 41 37 35 35 36 34 33 33 33 31 30 30 29 28 29 30 31 35 39 37 36
37 35 41 45 43 44 48 48 50 53 54 55 54 52 52 57 54 53 52 49 48 48 47 45 43 44 40 37 38 36 37 36 37 35 34 32 31 31 31 29 29 30 38 37 35
40 40 36 45 46 48 53 49 49 52 55 54 55 53 57 57 59 57 55 53 52 49 48 46 45 45 44 41 40 39 41 40 39 38 39 37 35 33 33 31 28 26 33 38 37
41 43 44 42 47 49 48 50 51 49 52 52 54 54 54 56 58 58 58 55 52 49 48 46 44 45 45 44 42 41 43 42 40 40 41 42 41 38 36 35 33 31 28 37 42
43 45 47 48 44 51 51 48 50 50 53 55 53 54 56 58 59 56 54 53 51 50 49 47 45 45 45 43 43 44 44 44 44 42 43 43 42 41 39 39 39 37 35 33 40
30 50 49 52 52 49 53 54 53 53 52 51 51 50 56 58 56 54 53 51 51 51 50 50 48 48 47 46 45 46 46 47 47 47 44 43 44 43 43 46 45 44 43 41 39
27 25 44 52 54 55 54 54 57 58 56 52 51 50 55 53 51 52 51 52 54 54 52 49 49 50 50 50 48 47 48 51 53 51 48 46 48 46 47 52 51 51 51 48 46
28 27 26 33 58 56 57 57 58 61 58 58 55 51 52 52 51 53 55 55 55 55 54 52 51 51 52 51 51 53 57 57 55 54 51 50 50 54 53 58 61 60 59 59 57
31 30 29 30 34 54 56 59 60 61 63 61 59 59 58 56 57 57 57 56 56 56 57 54 52 54 54 54 57 60 58 58 58 56 53 54 50 58 63 66 69 69 67 66 66
38 38 38 34 36 37 44 60 59 63 64 65 65 67 63 63 63 62 62 60 59 59 59 57 58 59 60 61 61 60 61 61 60 60 58 56 58 57 65 70 75 74 74 74 74
47 45 45 44 41 41 41 42 50 64 61 60 66 64 66 66 65 64 63 62 61 61 60 60 63 64 63 62 61 61 62 64 64 62 57 61 65 56 68 77 79 77 77 78 78
56 53 51 50 49 47 45 44 42 40 55 62 62 68 67 66 65 65 65 64 63 63 63 65 66 65 65 64 63 64 66 67 65 63 59 64 64 56 64 60 58 64 66 66 68
62 63 59 56 54 53 52 49 45 45 47 53 63 64 66 69 71 70 68 67 68 69 71 71 69 67 67 68 69 69 70 70 68 67 65 64 56 53 51 46 49 54 58 60 60
72 68 65 64 60 57 55 52 52 53 54 55 57 64 67 69 72 73 74 73 72 72 72 71 70 72 73 73 73 72 72 74 73 71 68 62 54 50 44 45 48 52 55 57 57
79 75 71 68 68 63 59 56 59 62 63 64 63 62 65 69 71 73 74 73 74 75 75 75 76 77 77 77 75 74 75 76 76 74 69 58 54 52 50 48 51 57 59 59 59
85 83 77 74 72 69 63 61 68 67 70 69 69 70 71 74 74 76 76 78 79 81 81 81 80 79 79 77 77 77 76 77 76 71 66 60 52 55 56 54 54 56 59 57 55
92 90 87 82 77 72 67 65 69 74 75 73 74 73 74 77 79 80 80 82 81 82 81 82 81 79 78 77 77 77 74 73 73 72 70 61 45 54 56 58 62 65 66 66 63
97 96 94 90 84 79 75 75 76 76 82 80 81 80 80 80 80 81 82 82 82 83 83 83 80 79 78 76 76 77 77 79 79 76 67 69 52 57 62 66 68 70 71 70 68
90 94 97 94 90 87 85 84 82 80 82 86 87 87 87 87 88 86 86 87 88 88 87 88 85 84 83 85 84 83 82 83 82 77 75 69 62 61 63 69 70 72 73 72 71
85 87 90 89 86 93 93 92 92 87 86 86 87 89 92 93 94 91 93 94 94 93 93 93 88 88 87 88 89 88 84 83 81 78 82 62 71 64 71 74 76 78 78 76 75
88 83 87 88 89 90 93 90 92 95 96 93 91 90 93 92 94 96 99 99 99 98 98 95 92 93 92 92 96 95 86 84 83 83 84 77 77 77 81 80 80 82 86 82 79
98 94 90 89 90 90 84 84 90 98 100 99 99 102 98 90 98 99 100 97 98 99 97 99 98 99 94 99 101 97 80 89 92 89 90 88 78 88 86 86 83 84 85 87 88
Wind_Direction
198 200 205 208 208 205 201 215 220 216 216 214 212 213 215 216 217 220 223 229 234 238 240 244 242 244 240 235 235 238 243 248 254 259 264 271 275 274 276 281 270 245 231 229 230
204 205 206 202 209 209 201 215 219 222 219 214 218 216 218 219 221 225 226 229 234 239 247 247 248 245 246 239 239 242 246 254 259 263 268 273 275 281 281 287 280 260 243 234 231
207 209 208 208 206 210 207 205 220 219 223 221 219 222 221 224 223 226 229 231 234 239 244 251 252 249 247 244 242 244 248 257 261 265 269 272 277 281 285 286 283 257 245 240 237
214 211 209 211 211 211 207 206 217 220 223 227 224 223 223 230 229 227 230 230 233 240 244 248 253 253 249 247 242 247 251 255 259 267 272 278 281 284 288 296 285 251 241 240 239
223 214 208 214 215 215 215 210 210 217 226 226 230 230 228 230 233 233 233 233 235 238 243 246 250 253 251 247 245 245 249 252 260 267 268 279 281 284 289 302 288 251 236 237 239
221 218 211 217 217 217 220 217 217 216 216 226 230 232 237 236 238 238 238 237 239 240 242 246 248 251 251 249 245 248 243 250 258 263 268 275 282 287 290 300 292 252 237 235 240
227 215 216 218 219 220 221 218 220 221 222 218 228 235 237 237 240 242 242 243 242 244 245 245 248 252 251 251 248 248 245 251 258 263 269 272 277 281 288 296 299 257 241 241 243
230 223 218 218 219 221 220 217 216 221 221 221 225 232 236 238 239 242 243 242 246 246 245 245 249 252 250 248 250 252 249 251 259 266 269 271 273 279 284 289 293 274 247 248 249
234 228 221 220 221 220 220 223 216 218 221 222 228 234 236 238 238 240 241 242 241 242 245 247 249 253 249 247 251 252 250 254 261 264 266 269 272 275 280 284 286 287 272 253 252
235 234 229 223 224 223 224 221 223 224 226 228 230 235 239 241 241 239 239 239 241 243 247 248 251 249 248 249 250 251 252 256 259 261 265 268 269 271 278 280 281 280 280 272 258
240 235 234 229 227 225 227 228 228 226 224 226 230 233 238 237 235 236 237 237 241 245 248 250 250 249 247 247 251 250 252 256 258 261 266 269 271 272 275 277 277 278 278 273 269
240 241 237 230 230 229 228 230 231 230 226 225 229 232 236 237 237 237 238 242 244 247 249 249 251 249 247 247 249 251 253 256 258 264 267 268 272 273 275 276 276 276 275 273 269
253 248 244 242 231 231 232 232 230 231 229 230 225 228 233 233 235 238 241 242 244 246 247 250 251 249 248 250 252 255 256 258 261 262 267 270 273 276 278 277 276 273 272 272 271
252 249 250 248 243 236 233 234 233 232 231 231 231 229 230 232 235 237 239 241 243 246 248 249 251 250 250 250 251 253 258 260 262 263 267 271 279 283 282 277 273 270 270 269 267
249 249 247 248 245 243 240 238 237 236 236 235 234 232 233 234 234 238 240 240 243 246 247 248 250 249 248 249 253 256 259 261 262 264 268 277 280 282 284 282 275 268 265 263 264
249 248 247 246 243 243 239 240 240 239 237 236 236 234 233 235 236 239 241 243 246 248 248 247 248 249 251 253 255 258 260 262 264 267 271 277 282 286 284 283 270 263 259 259 258
252 249 247 245 241 241 241 243 242 243 237 235 233 233 235 236 238 240 242 244 247 247 247 247 248 250 253 256 259 260 261 263 265 268 273 277 284 288 288 278 263 260 260 262 263
250 251 250 246 243 241 238 237 243 243 242 236 234 233 235 235 237 239 241 243 245 245 247 249 251 253 255 256 257 259 262 264 265 268 273 280 282 283 287 274 263 264 263 262 264
254 254 252 251 248 242 243 239 239 239 240 240 237 235 236 238 240 241 241 243 246 248 250 252 253 254 255 256 258 260 263 265 267 271 273 277 275 277 276 272 267 265 264 266 269
251 254 254 252 251 247 240 240 240 240 242 241 240 239 238 239 239 241 244 246 248 249 250 251 251 252 253 255 258 261 264 267 269 271 273 272 267 270 270 270 270 269 269 270 270
252 251 253 252 249 248 246 240 240 242 241 243 243 241 241 241 241 242 243 244 246 248 249 250 251 252 254 257 260 262 264 266 267 269 267 265 264 266 268 268 269 267 268 272 274
250 251 252 251 250 247 243 240 240 241 241 243 244 245 244 243 244 244 245 246 247 249 251 252 253 255 257 258 260 262 264 264 264 264 266 267 265 268 268 266 266 267 269 271 273
250 250 251 250 251 248 242 241 239 239 240 240 243 245 246 247 247 249 249 250 250 252 253 255 254 255 257 259 261 260 261 262 264 265 267 266 265 267 266 264 262 263 262 264 268
249 250 249 249 249 250 246 242 242 241 243 240 240 241 243 245 247 247 250 251 252 253 254 255 256 256 256 257 257 258 260 263 266 267 268 267 267 265 262 263 264 263 263 264 266
246 248 248 248 249 248 247 245 244 244 245 246 243 243 244 245 248 249 249 250 252 253 254 256 257 259 259 260 260 259 260 264 267 267 266 266 265 266 265 261 261 266 267 267 268
248 245 247 248 247 246 245 247 246 246 246 248 247 247 247 246 247 248 250 250 251 252 254 257 258 259 259 261 262 261 262 266 268 269 268 266 261 270 264 264 265 263 265 267 268
250 247 244 243 246 248 248 247 245 244 246 247 247 248 249 250 250 249 250 251 253 254 254 255 257 258 257 258 259 260 266 264 263 265 267 267 267 265 267 265 265 268 267 265 266
Height
10660 10666 10672 10678 10685 10690 10693 10700 10706 10713 10719 10725 10731 10737 10742 10747 10752 10757 10760 10764 10768 10772 10775 10778 10780 10783 10785 10787 10789 10791 10794 10796 10798 10800 10801 10802 10802 10804 10806 10806 10807 10810 10812 10815 10818
10658 10663 10667 10672 10680 10685 10689 10696 10702 10709 10715 10720 10725 10730 10736 10741 10746 10751 10756 10759 10763 10766 10769 10773 10775 10778 10781 10782 10784 10786 10789 10791 10793 10795 10796 10797 10797 10798 10800 10800 10800 10802 10804 10806 10809
10655 10659 10664 10668 10673 10678 10684 10688 10698 10705 10710 10714 10719 10724 10730 10735 10740 10745 10750 10754 10758 10761 10765 10767 10770 10773 10775 10777 10779 10781 10783 10786 10787 10789 10791 10791 10792 10792 10793 10794 10793 10794 10796 10799 10801
10652 10656 10659 10663 10668 10672 10677 10683 10692 10699 10704 10709 10714 10718 10723 10729 10734 10739 10743 10748 10752 10756 10759 10761 10764 10766 10769 10772 10774 10775 10778 10779 10781 10782 10784 10785 10785 10786 10785 10785 10785 10786 10788 10791 10794
10649 10652 10655 10658 10662 10666 10671 10678 10685 10693 10698 10703 10707 10712 10717 10722 10726 10731 10735 10740 10744 10749 10752 10755 10758 10760 10763 10765 10768 10769 10771 10773 10774 10776 10778 10779 10779 10779 10779 10778 10776 10777 10782 10785 10787
10645 10647 10650 10653 10657 10661 10667 10673 10678 10684 10689 10695 10701 10705 10710 10715 10719 10723 10727 10732 10737 10740 10744 10748 10751 10753 10756 10758 10760 10762 10765 10766 10767 10769 10771 10772 10772 10772 10773 10772 10769 10769 10774 10778 10781
10641 10642 10645 10647 10650 10654 10660 10665 10671 10676 10681 10686 10693 10697 10703 10707 10711 10715 10720 10724 10728 10732 10736 10739 10742 10745 10748 10750 10752 10755 10757 10760 10761 10763 10764 10766 10766 10766 10766 10766 10764 10763 10767 10771 10774
10633 10637 10638 10641 10644 10647 10651 10657 10662 10667 10673 10679 10684 10689 10694 10699 10703 10707 10711 10715 10719 10723 10726 10729 10733 10736 10739 10742 10744 10747 10749 10751 10754 10756 10757 10758 10759 10759 10759 10760 10760 10759 10762 10765 10767
10625 10628 10632 10634 10637 10640 10644 10648 10653 10658 10665 10671 10675 10680 10686 10689 10694 10698 10702 10706 10710 10713 10716 10720 10723 10726 10729 10733 10736 10738 10740 10743 10746 10748 10749 10750 10752 10753 10753 10753 10753 10754 10756 10757 10759
10615 10618 10622 10625 10628 10632 10636 10640 10645 10650 10656 10661 10666 10671 10675 10680 10683 10688 10692 10696 10700 10704 10707 10710 10713 10717 10720 10724 10727 10729 10732 10734 10737 10738 10740 10742 10743 10745 10746 10746 10746 10747 10748 10749 10751
10604 10607 10610 10614 10618 10622 10627 10631 10636 10641 10645 10650 10654 10659 10662 10668 10672 10677 10681 10686 10690 10694 10697 10700 10703 10706 10710 10713 10716 10718 10721 10724 10726 10728 10731 10733 10733 10737 10739 10736 10737 10739 10739 10740 10742
10595 10596 10599 10603 10607 10611 10615 10620 10626 10631 10636 10640 10645 10649 10653 10658 10663 10667 10671 10675 10679 10682 10685 10689 10692 10695 10699 10702 10704 10707 10710 10712 10715 10717 10721 10724 10723 10727 10730 10725 10727 10728 10727 10728 10730
10586 10588 10589 10590 10595 10599 10604 10608 10613 10618 10625 10630 10634 10639 10643 10648 10652 10656 10660 10663 10666 10670 10673 10676 10680 10683 10687 10690 10693 10695 10696 10699 10703 10705 10710 10712 10715 10713 10717 10714 10712 10714 10715 10715 10716
10578 10578 10580 10582 10584 10588 10591 10597 10602 10606 10612 10618 10623 10629 10632 10635 10640 10643 10646 10649 10653 10657 10660 10664 10668 10670 10673 10676 10678 10681 10684 10686 10689 10693 10698 10699 10707 10700 10699 10699 10696 10696 10698 10699 10699
10567 10568 10570 10572 10575 10577 10580 10585 10589 10593 10600 10604 10611 10614 10617 10623 10625 10629 10632 10636 10640 10643 10646 10652 10654 10656 10659 10662 10665 10669 10670 10672 10675 10679 10685 10688 10688 10695 10679 10677 10674 10678 10676 10679 10681
10555 10556 10558 10560 10563 10565 10569 10572 10576 10581 10587 10592 10595 10599 10603 10607 10611 10614 10619 10622 10625 10629 10633 10638 10639 10642 10645 10647 10651 10654 10655 10656 10660 10665 10674 10672 10669 10686 10665 10652 10644 10648 10652 10657 10662
10539 10543 10545 10547 10550 10553 10557 10561 10565 10570 10571 10576 10579 10583 10587 10592 10596 10599 10603 10607 10612 10615 10619 10619 10623 10627 10631 10634 10636 10637 10638 10641 10646 10650 10659 10657 10658 10663 10648 10633 10628 10628 10633 10638 10641
10521 10525 10529 10533 10536 10540 10544 10550 10556 10558 10558 10560 10564 10568 10571 10576 10579 10583 10587 10592 10595 10598 10599 10604 10610 10613 10617 10617 10619 10621 10623 10625 10630 10634 10641 10644 10649 10643 10633 10626 10621 10619 10620 10622 10627
10502 10506 10510 10515 10520 10525 10531 10539 10541 10542 10543 10545 10549 10553 10557 10560 10564 10568 10572 10575 10578 10581 10585 10589 10594 10595 10598 10600 10603 10609 10609 10606 10611 10619 10624 10631 10633 10629 10621 10614 10611 10609 10608 10609 10613
10481 10485 10491 10498 10502 10509 10517 10524 10526 10526 10526 10529 10533 10540 10542 10545 10549 10552 10555 10559 10560 10563 10567 10571 10574 10579 10581 10584 10588 10590 10589 10590 10593 10599 10607 10617 10617 10616 10605 10602 10600 10596 10596 10595 10596
10458 10462 10469 10476 10483 10492 10505 10507 10504 10505 10509 10513 10518 10523 10525 10528 10532 10534 10539 10540 10542 10544 10548 10551 10557 10561 10564 10568 10567 10571 10574 10571 10572 10580 10586 10596 10606 10601 10594 10589 10586 10583 10578 10580 10583
10433 10439 10444 10452 10462 10476 10485 10485 10483 10486 10489 10494 10499 10503 10507 10510 10513 10517 10520 10519 10522 10524 10527 10529 10537 10543 10546 10549 10551 10553 10555 10553 10552 10558 10567 10580 10599 10586 10579 10576 10569 10564 10564 10563 10566
10407 10415 10419 10428 10443 10454 10458 10460 10461 10464 10466 10474 10477 10481 10486 10489 10493 10497 10498 10499 10501 10501 10504 10507 10519 10523 10529 10533 10533 10531 10533 10532 10534 10541 10558 10555 10580 10565 10562 10557 10550 10547 10545 10546 10553
10379 10386 10397 10408 10421 10427 10433 10437 10440 10441 10444 10450 10454 10459 10464 10467 10468 10475 10475 10475 10476 10480 10484 10486 10498 10506 10512 10507 10509 10511 10512 10512 10515 10526 10531 10543 10551 10548 10541 10532 10526 10522 10522 10533 10538
10355 10367 10372 10384 10394 10396 10399 10411 10416 10423 10422 10425 10435 10442 10441 10440 10445 10454 10453 10449 10453 10458 10461 10465 10479 10480 10484 10484 10483 10487 10494 10496 10501 10506 10500 10533 10519 10526 10512 10507 10505 10504 10506 10514 10520
10331 10345 10345 10353 10355 10361 10372 10393 10398 10398 10401 10404 10410 10410 10409 10420 10427 10424 10421 10427 10431 10437 10440 10449 10457 10455 10461 10459 10454 10458 10479 10484 10486 10482 10479 10492 10500 10493 10483 10486 10490 10491 10487 10496 10499
10297 10307 10314 10326 10332 10339 10362 10367 10366 10365 10373 10379 10381 10374 10387 10407 10391 10394 10399 10409 10413 10415 10421 10421 10426 10427 10442 10429 10425 10438 10478 10458 10452 10461 10459 10464 10484 10457 10463 10463 10471 10471 10471 10470 10468